Location: ???????
(38.3360°N, 23.6977°E)
Time: 22:28:14
(UTC+00:00)

Cosmos 371 Rocket - Pass Details

Date: 17 November 2025
Orbit: 674 x 690 km, 74.0° (Epoch: 09 December)

Event Time Altitude Azimuth Distance (km) Brightness Sun altitude
Rises 16:23:59 0° 183° (S) 3,022 6.8 -14.4°
Reaches altitude 10° 16:26:19 10° 178° (S) 2,114 5.9 -14.8°
Maximum altitude 16:30:54 50° 104° (ESE) 868 3.4 -15.7°
Enters shadow 16:34:16 18° 35° (NE) 1,657 4.8 -16.3°
